User: anonymous   Login
Location: Melbourne
(37.8170°S, 144.9670°E)
Time: 04:19:32
(UTC+11:00)
Language:

ISS - Orbit

View from above orbital plane
View from above orbital plane
View from above satellite
View from above satellite

Ground track
Ground track

The orbit data is extracted from the following two-line orbital elements,

1 25544U 98067A   15086.56977887  .00015264  00000-0  22718-3 0  9998
2 25544 051.6457 131.7519 0007156 145.3471 315.6331 15.55318800935332
Epoch (UTC): 27 March 2015 13:40:28
Eccentricity: 0.0007156
inclination: 51.6457°
perigee height: 396 km
apogee height: 406 km
right ascension of ascending node: 131.7519°
argument of perigee: 145.3471°
revolutions per day: 15.55318800
mean anomaly at epoch: 315.6331°
orbit number at epoch: 93533

The dashed part of the orbit path shows where the satellite is in the earth's shadow,  

DLR